Jefferson, NC

6:55 AM EDT on September 20, 2019 (GMT -0400)
Ashe County

Weather History for KGEV - May, 2019

Change the Weather History Date:

Friday, May 24, 2019

  Actual Average Record
Temperature  
Mean Temperature 74 °F -  
Max Temperature 80 °F 73 °F 84 °F (1970)
Min Temperature 67 °F 48 °F 32 °F (1967)
Cooling Degree Days 9    
Growing Degree Days 24 (Base 50)    
Moisture  
Dew Point 59 °F    
Average Humidity 61    
Maximum Humidity 73    
Minimum Humidity 46    
Precipitation  
Precipitation 0.00 in - - ()
Sea Level Pressure  
Sea Level Pressure 30.24 in    
Wind  
Wind Speed 15 mph (WNW)    
Max Wind Speed 30 mph    
Max Gust Speed 41 mph    
Visibility 10 miles    
Events      
Averages and records for this station are not official NWS values.
T = Trace of Precipitation, MM = Missing Value Source: NWS Daily Summary

Daily Weather History Graph

Daily Weather History Graph

Search for Another Location

Airport or City:

Astronomy

May. 24, 2019 Rise Set
Actual Time 6:12 AM EDT 8:32 PM EDT
Civil Twilight 5:43 AM EDT 9:01 PM EDT
Nautical Twilight 5:07 AM EDT 9:38 PM EDT
Astronomical Twilight 4:27 AM EDT 10:17 PM EDT
Moon 12:56 AM EDT (5/24) 11:11 AM EDT (5/24)
Length of Visible Light 15h 18m
Length of Day
14h 19m
Waning Gibbous, 69% of the Moon is Illuminated
May 24
Waning Gibbous
May 26
Last Quarter
Jun 3
New
Jun 10
First Quarter
Jun 17
Full

Hourly Weather History & Observations

Time (EDT) Temp. Heat Index Dew Point Humidity Pressure Visibility Wind Dir Wind Speed Gust Speed Precip Events Conditions
12:05 AM 71.2 °F - 59.0 °F 65% 30.25 in 10.0 mi West 12.7 mph - N/A   Clear
12:25 AM 71.1 °F - 59.4 °F 66% 30.25 in 10.0 mi WNW 12.7 mph 21.9 mph N/A   Clear
12:45 AM 71.1 °F - 59.5 °F 67% 30.24 in 10.0 mi WNW 16.1 mph 24.2 mph N/A   Clear
1:05 AM 70.9 °F - 59.9 °F 68% 30.24 in 10.0 mi West 17.3 mph 26.5 mph N/A   Clear
1:25 AM 70.7 °F - 59.5 °F 68% 30.24 in 10.0 mi WNW 16.1 mph 26.5 mph N/A   Clear
1:45 AM 70.7 °F - 59.9 °F 69% 30.23 in 10.0 mi WNW 21.9 mph 29.9 mph N/A   Clear
2:05 AM 70.7 °F - 60.3 °F 69% 30.23 in 10.0 mi West 19.6 mph 27.6 mph N/A   Clear
2:25 AM 70.2 °F - 60.3 °F 71% 30.22 in 10.0 mi WNW 23.0 mph 28.8 mph N/A   Clear
2:45 AM 70.0 °F - 60.8 °F 73% 30.22 in 10.0 mi WNW 21.9 mph 29.9 mph N/A   Clear
3:05 AM 70.0 °F - 60.6 °F 72% 30.21 in 10.0 mi WNW 24.2 mph 29.9 mph N/A   Clear
3:25 AM 70.0 °F - 60.3 °F 71% 30.20 in 10.0 mi WNW 23.0 mph 34.5 mph N/A   Clear
3:45 AM 70.2 °F - 59.9 °F 70% 30.20 in 10.0 mi West 29.9 mph 39.1 mph N/A   Clear
4:05 AM 70.2 °F - 59.9 °F 70% 30.20 in 10.0 mi West 28.8 mph 38.0 mph N/A   Clear
4:25 AM 70.0 °F - 59.5 °F 69% 30.19 in 10.0 mi WNW 21.9 mph 38.0 mph N/A   Clear
4:45 AM 70.2 °F - 58.5 °F 66% 30.19 in 10.0 mi WNW 24.2 mph 41.4 mph N/A   Clear
5:05 AM 70.0 °F - 58.3 °F 66% 30.19 in 10.0 mi WNW 24.2 mph 38.0 mph N/A   Clear
5:25 AM 69.8 °F - 57.9 °F 66% 30.20 in 10.0 mi WNW 23.0 mph 35.7 mph N/A   Clear
5:45 AM 69.4 °F - 58.1 °F 67% 30.20 in 10.0 mi WNW 18.4 mph 31.1 mph N/A   Clear
6:05 AM 69.1 °F - 57.9 °F 68% 30.21 in 10.0 mi WNW 20.7 mph 38.0 mph N/A   Clear
6:25 AM 68.9 °F - 58.1 °F 68% 30.21 in 10.0 mi WNW 24.2 mph 33.4 mph N/A   Clear
6:45 AM 68.9 °F - 58.1 °F 68% 30.22 in 10.0 mi WNW 24.2 mph 38.0 mph N/A   Clear
7:05 AM 68.9 °F - 58.1 °F 68% 30.24 in 10.0 mi WNW 19.6 mph 29.9 mph N/A   Clear
7:25 AM 68.9 °F - 58.3 °F 69% 30.24 in 10.0 mi WNW 17.3 mph 27.6 mph N/A   Clear
7:45 AM 69.3 °F - 58.3 °F 68% 30.24 in 10.0 mi WNW 20.7 mph 29.9 mph N/A   Clear
8:05 AM 69.1 °F - 59.0 °F 70% 30.25 in 10.0 mi WNW 17.3 mph 25.3 mph N/A   Clear
8:25 AM 69.6 °F - 59.4 °F 70% 30.27 in 10.0 mi West 16.1 mph 23.0 mph N/A   Clear
8:45 AM 69.8 °F - 59.7 °F 70% 30.27 in 10.0 mi West 13.8 mph 19.6 mph N/A   Clear
9:05 AM 70.5 °F - 60.3 °F 70% 30.27 in 10.0 mi West 13.8 mph - N/A   Clear
9:25 AM 71.1 °F - 60.4 °F 69% 30.28 in 10.0 mi West 11.5 mph 17.3 mph N/A   Clear
9:45 AM - - - N/A% 30.29 in 10.0 mi West 10.4 mph 17.3 mph N/A   Scattered Clouds
10:05 AM 72.5 °F - 60.8 °F 67% 30.29 in 10.0 mi WNW 13.8 mph 17.3 mph N/A   Scattered Clouds
10:25 AM 73.6 °F - 60.4 °F 63% 30.28 in 10.0 mi WNW 9.2 mph 18.4 mph N/A   Mostly Cloudy
10:45 AM - - - N/A% 30.28 in 10.0 mi West 11.5 mph 19.6 mph N/A   Scattered Clouds
11:05 AM - - - N/A% 30.28 in 10.0 mi NW 8.1 mph 16.1 mph N/A   Scattered Clouds
11:25 AM 75.6 °F - 58.8 °F 56% 30.28 in 10.0 mi West 10.4 mph 17.3 mph N/A   Mostly Cloudy
11:45 AM - - - N/A% 30.28 in 10.0 mi West 5.8 mph - N/A   Mostly Cloudy
12:05 PM 76.8 °F - 58.1 °F 52% 30.28 in 10.0 mi West 16.1 mph 20.7 mph N/A   Mostly Cloudy
12:25 PM 76.8 °F - 57.7 °F 52% 30.27 in 10.0 mi West 15.0 mph 20.7 mph N/A   Mostly Cloudy
12:45 PM 77.7 °F - 57.7 °F 50% 30.27 in 10.0 mi West 15.0 mph 19.6 mph N/A   Mostly Cloudy
1:05 PM 77.7 °F - 57.0 °F 49% 30.26 in 10.0 mi West 12.7 mph 19.6 mph N/A   Scattered Clouds
1:25 PM 78.4 °F - 56.8 °F 47% 30.26 in 10.0 mi West 11.5 mph 20.7 mph N/A   Mostly Cloudy
1:45 PM 79.0 °F - 56.8 °F 46% 30.26 in 10.0 mi West 15.0 mph 21.9 mph N/A   Mostly Cloudy
2:05 PM 78.6 °F - 57.2 °F 48% 30.25 in 10.0 mi West 6.9 mph 11.5 mph N/A   Mostly Cloudy
2:25 PM - - - N/A% 30.24 in 10.0 mi West 15.0 mph 19.6 mph N/A   Scattered Clouds
2:45 PM - - - N/A% 30.24 in 10.0 mi NW 6.9 mph 20.7 mph N/A   Clear
3:05 PM 79.9 °F - 57.6 °F 46% 30.24 in 10.0 mi West 13.8 mph 17.3 mph N/A   Scattered Clouds
3:45 PM 80.1 °F 80.6 °F 57.9 °F 47% 30.24 in 10.0 mi West 12.7 mph 20.7 mph N/A   Mostly Cloudy
4:05 PM 80.1 °F 80.6 °F 58.1 °F 47% 30.24 in 10.0 mi West 13.8 mph 19.6 mph N/A   Scattered Clouds
4:25 PM 79.7 °F - 58.3 °F 48% 30.24 in 10.0 mi West 11.5 mph 19.6 mph N/A   Scattered Clouds
4:45 PM - - - N/A% 30.24 in 10.0 mi West 8.1 mph - N/A   Scattered Clouds
5:05 PM - - - N/A% 30.24 in 10.0 mi West 12.7 mph 16.1 mph N/A   Scattered Clouds
5:25 PM 79.2 °F - 59.2 °F 50% 30.24 in 10.0 mi West 12.7 mph 21.9 mph N/A   Scattered Clouds
5:45 PM 79.2 °F - 58.8 °F 50% 30.24 in 10.0 mi West 10.4 mph 18.4 mph N/A   Scattered Clouds
6:05 PM - - - N/A% 30.24 in 10.0 mi WNW 8.1 mph - N/A   Scattered Clouds
6:25 PM 78.8 °F - 58.5 °F 50% 30.24 in 10.0 mi WNW 10.4 mph - N/A   Scattered Clouds
6:45 PM 78.4 °F - 58.3 °F 50% 30.24 in 10.0 mi West 9.2 mph 18.4 mph N/A   Scattered Clouds
7:05 PM 77.9 °F - 58.1 °F 50% 30.24 in 10.0 mi WNW 12.7 mph 16.1 mph N/A   Clear
7:25 PM 77.0 °F - 58.3 °F 52% 30.25 in 10.0 mi West 8.1 mph 18.4 mph N/A   Clear
7:45 PM 76.6 °F - 58.5 °F 53% 30.25 in 10.0 mi WNW 10.4 mph 17.3 mph N/A   Clear
8:05 PM 75.9 °F - 57.9 °F 54% 30.26 in 10.0 mi WNW 8.1 mph - N/A   Clear
8:25 PM 75.2 °F - 57.7 °F 54% 30.26 in 10.0 mi WNW 6.9 mph - N/A   Clear
8:45 PM 74.5 °F - 58.1 °F 57% 30.26 in 10.0 mi WNW 6.9 mph - N/A   Clear
9:05 PM 73.6 °F - 58.5 °F 59% 30.26 in 10.0 mi West 6.9 mph - N/A   Clear
9:25 PM 73.4 °F - 58.6 °F 60% 30.26 in 10.0 mi WNW 10.4 mph - N/A   Clear
9:45 PM 73.4 °F - 58.5 °F 59% 30.25 in 10.0 mi WNW 11.5 mph 16.1 mph N/A   Clear
10:05 PM 73.4 °F - 58.1 °F 59% 30.26 in 10.0 mi WNW 9.2 mph - N/A   Clear
10:25 PM 73.0 °F - 57.6 °F 58% 30.25 in 10.0 mi WNW 8.1 mph - N/A   Clear
10:45 PM 72.5 °F - 57.6 °F 59% 30.26 in 10.0 mi WNW 4.6 mph - N/A   Clear
11:05 PM 70.7 °F - 57.6 °F 63% 30.26 in 10.0 mi Calm Calm - N/A   Clear
11:25 PM 69.4 °F - 58.1 °F 67% 30.26 in 10.0 mi NNE 3.5 mph - N/A   Clear
11:45 PM 67.5 °F - 58.6 °F 73% 30.26 in 10.0 mi NNE 3.5 mph - N/A   Clear